Total_Precipitation_Accumulation
1.34 1.34 1.37 1.33 1.34 1.38 1.47 1.64 1.83 1.65 1.22 0.90 0.80 0.77 0.78 0.78 0.81 0.74 0.63 0.68 0.67 0.66 0.70 0.71 0.71 0.74 0.78 0.85 0.93 1.01 1.09 1.17 1.24 1.31 1.39 1.50 1.66 1.88
1.20 1.22 1.22 1.21 1.26 1.32 1.39 1.46 1.62 1.71 1.44 0.96 0.78 0.74 0.77 0.76 0.78 0.70 0.62 0.69 0.66 0.64 0.65 0.66 0.65 0.64 0.67 0.73 0.78 0.83 0.87 0.94 1.03 1.15 1.28 1.41 1.53 1.67
1.07 1.08 1.05 1.04 1.10 1.14 1.20 1.27 1.35 1.46 1.41 1.00 0.81 0.75 0.75 0.72 0.68 0.63 0.58 0.56 0.53 0.58 0.59 0.61 0.63 0.62 0.64 0.68 0.71 0.76 0.79 0.83 0.92 1.03 1.16 1.27 1.37 1.43
0.96 1.01 1.00 0.98 1.00 1.03 1.09 1.10 1.11 1.14 1.22 1.05 0.78 0.69 0.65 0.61 0.59 0.57 0.53 0.50 0.46 0.52 0.54 0.58 0.65 0.68 0.65 0.64 0.65 0.69 0.75 0.79 0.83 0.87 0.96 1.04 1.14 1.27
0.88 0.95 0.98 1.01 1.03 1.03 1.04 1.04 1.03 1.06 1.12 1.12 0.86 0.69 0.62 0.58 0.59 0.55 0.52 0.51 0.46 0.49 0.52 0.53 0.55 0.60 0.63 0.65 0.65 0.65 0.67 0.71 0.77 0.81 0.85 0.91 0.99 1.11
0.88 0.92 0.96 0.96 0.94 0.92 0.94 0.93 0.96 1.01 1.03 1.08 1.00 0.82 0.69 0.59 0.62 0.62 0.59 0.52 0.50 0.50 0.56 0.56 0.56 0.57 0.59 0.60 0.59 0.58 0.59 0.65 0.77 0.88 0.96 1.00 0.99 1.02
0.99 0.95 0.94 0.97 0.93 0.88 0.88 0.89 0.92 0.98 1.05 1.12 1.05 0.89 0.74 0.65 0.59 0.56 0.62 0.60 0.57 0.52 0.55 0.55 0.57 0.60 0.63 0.68 0.71 0.71 0.73 0.79 0.90 1.02 1.11 1.16 1.16 1.14
0.98 0.90 0.87 0.89 0.88 0.89 0.88 0.88 0.94 1.04 1.13 1.17 1.10 0.93 0.72 0.64 0.65 0.74 0.84 0.94 0.86 0.58 0.62 0.72 0.77 0.83 0.80 0.80 0.89 0.93 0.94 0.99 1.04 1.09 1.14 1.18 1.19 1.18
0.88 0.83 0.78 0.75 0.79 0.73 0.77 0.83 0.86 0.96 1.04 1.04 0.97 0.77 0.67 0.64 0.80 0.96 0.99 1.02 0.88 0.70 0.81 0.93 0.87 0.85 0.79 0.82 0.97 0.93 0.91 0.93 0.96 1.01 1.05 1.08 1.10 1.09
0.76 0.71 0.69 0.67 0.68 0.74 0.81 0.87 0.79 0.75 0.75 0.73 0.70 0.65 0.65 0.70 0.89 1.11 1.19 1.21 1.03 0.86 0.84 0.93 0.79 0.73 0.69 0.73 0.84 0.84 0.81 0.84 0.89 0.95 0.97 1.01 1.03 1.01
0.70 0.68 0.68 0.64 0.72 0.86 0.91 0.92 0.79 0.65 0.66 0.72 0.76 0.73 0.75 0.79 0.86 1.11 1.33 1.45 1.24 0.87 0.73 0.78 0.74 0.72 0.71 0.69 0.74 0.83 0.81 0.81 0.86 0.90 0.91 0.94 0.99 1.02
0.69 0.68 0.74 0.72 0.81 0.92 0.88 0.87 0.80 0.64 0.62 0.64 0.65 0.65 0.60 0.61 0.75 0.91 1.30 1.70 1.44 1.06 0.71 0.78 0.82 0.93 1.11 0.78 0.68 0.74 0.78 0.79 0.80 0.83 0.87 0.90 0.93 0.93
0.75 0.68 0.68 0.83 0.91 0.95 0.85 0.70 0.71 0.78 0.71 0.63 0.62 0.62 0.60 0.60 0.63 0.69 0.93 1.55 1.84 1.40 0.83 1.12 1.28 1.04 1.19 0.91 0.72 0.74 0.79 0.86 0.89 0.88 0.92 0.93 0.93 0.98
0.70 0.64 0.66 0.82 0.81 0.77 0.72 0.72 0.79 0.74 0.61 0.64 0.65 0.64 0.63 0.63 0.66 0.70 0.75 0.90 1.22 1.39 1.09 1.33 1.68 1.29 1.32 1.07 0.79 0.77 0.83 0.98 1.12 1.10 1.04 1.10 1.05 1.03
0.67 0.71 0.75 0.75 0.69 0.63 0.67 0.71 0.69 0.65 0.67 0.75 0.72 0.66 0.65 0.69 0.74 0.79 0.80 0.81 0.87 0.92 0.95 1.03 1.32 1.33 1.43 1.33 1.00 0.86 0.98 1.07 1.23 1.41 1.36 1.23 1.09 1.04
0.69 0.71 0.67 0.64 0.62 0.62 0.67 0.65 0.59 0.64 0.80 0.86 0.77 0.70 0.70 0.78 0.82 0.89 1.02 1.02 1.07 1.01 0.93 0.90 0.99 1.24 1.31 1.04 1.10 1.07 1.11 1.38 1.45 1.63 1.60 1.36 1.13 0.99
0.68 0.58 0.54 0.55 0.57 0.57 0.57 0.59 0.61 0.65 0.73 0.76 0.81 0.82 0.81 0.88 0.97 1.06 1.21 1.28 1.29 1.12 0.96 0.82 0.77 0.84 0.98 1.03 1.07 0.99 1.09 1.34 1.56 1.68 1.66 1.52 1.30 1.10
0.62 0.55 0.53 0.52 0.53 0.55 0.55 0.56 0.60 0.65 0.75 0.85 0.91 0.94 0.99 1.05 1.14 1.19 1.32 1.41 1.33 1.11 0.93 0.79 0.74 0.78 0.79 0.80 0.91 1.06 1.15 1.36 1.51 1.52 1.40 1.40 1.39 1.18
0.51 0.50 0.52 0.51 0.52 0.53 0.58 0.62 0.65 0.66 0.81 0.99 1.08 1.13 1.20 1.24 1.29 1.33 1.35 1.31 1.17 1.00 0.88 0.79 0.84 1.08 1.08 0.80 0.66 0.90 1.32 1.44 1.36 1.34 1.21 1.16 1.26 1.14
0.46 0.47 0.46 0.49 0.53 0.57 0.62 0.71 0.76 0.78 0.88 1.01 1.11 1.16 1.25 1.36 1.40 1.35 1.26 1.18 1.07 0.89 0.74 0.65 0.73 1.08 1.45 1.28 1.03 0.95 1.08 1.32 1.39 1.33 1.10 0.99 1.04 1.03
0.43 0.43 0.44 0.47 0.54 0.59 0.66 0.74 0.84 0.95 1.04 1.17 1.21 1.23 1.29 1.44 1.40 1.24 1.10 0.97 0.90 0.79 0.69 0.57 0.57 0.77 1.05 1.17 1.08 0.96 1.04 1.14 1.25 1.43 1.31 1.19 1.07 0.98
0.45 0.45 0.45 0.48 0.54 0.61 0.67 0.77 0.90 0.97 1.07 1.16 1.21 1.23 1.28 1.37 1.31 1.09 0.90 0.83 0.75 0.69 0.64 0.55 0.51 0.59 0.82 1.10 1.03 0.87 0.89 0.91 0.89 0.88 1.04 1.31 1.61 1.68
0.51 0.53 0.51 0.53 0.58 0.65 0.73 0.80 0.91 1.00 1.09 1.20 1.23 1.19 1.16 1.09 0.93 0.86 0.80 0.77 0.76 0.70 0.65 0.62 0.57 0.59 0.69 0.81 0.91 0.85 0.78 0.74 0.70 0.80 1.01 1.00 1.06 1.25